Orr, MN

6:27 PM CDT on March 29, 2017 (GMT -0500)
Orr Regional

Weather History for KORB - December, 2013

Change the Weather History Date:

Sunday, December 22, 2013

  Actual Average Record
Temperature  
Mean Temperature -1 °F -  
Max Temperature 5 °F 15 °F 37 °F (2005)
Min Temperature -7 °F 0 °F -25 °F (1999)
Degree Days  
Heating Degree Days 66    
Moisture  
Dew Point -6 °F    
Average Humidity 75    
Maximum Humidity 85    
Minimum Humidity 66    
Precipitation  
Precipitation 0.00 in - - ()
Sea Level Pressure  
Sea Level Pressure 30.09 in    
Wind  
Wind Speed 1 mph (NNW)    
Max Wind Speed 6 mph    
Max Gust Speed -    
Visibility 5 miles    
Events Snow    
Averages and records for this station are not official NWS values.
T = Trace of Precipitation, MM = Missing Value Source: NWS Daily Summary

Daily Weather History Graph

Daily Weather History Graph

Search for Another Location

Airport or City:

Trip Planner

Search our weather history database for the weather conditions in past years. The results will help you decide how hot, cold, wet, or windy it might be!

Date:

Astronomy

Dec. 22, 2013 Rise Set
Actual Time 7:59 AM CST 4:21 PM CST
Civil Twilight 7:22 AM CST 4:57 PM CST
Nautical Twilight 6:42 AM CST 5:37 PM CST
Astronomical Twilight 6:05 AM CST 6:15 PM CST
Moon 9:56 PM CST (12/22) 10:35 AM CST (12/22)
Length of Visible Light 9h 35m
Length of Day
8h 22m
Waning Gibbous, 76% of the Moon is Illuminated
Dec 22
Waning Gibbous
Dec 25
Last Quarter
Jan 1
New
Jan 7
First Quarter
Jan 15
Full

Hourly Weather History & Observations

Time (CST) Temp. Windchill Dew Point Humidity Pressure Visibility Wind Dir Wind Speed Gust Speed Precip Events Conditions
12:13 AM 5.0 °F -2.1 °F -0.4 °F 78% 30.01 in 5.0 mi NNE 3.5 mph - N/A Snow Light Snow
12:33 AM 5.0 °F - -0.4 °F 78% 30.01 in 4.0 mi Calm Calm - N/A Snow Light Snow
12:53 AM 5.0 °F -2.1 °F -0.4 °F 78% 30.02 in 2.5 mi NNE 3.5 mph - N/A Snow Light Snow
1:13 AM 5.0 °F - -0.4 °F 78% 30.02 in 3.0 mi Calm Calm - N/A Snow Light Snow
1:33 AM 5.0 °F -2.1 °F -0.4 °F 78% 30.01 in 3.0 mi North 3.5 mph - N/A Snow Light Snow
1:53 AM 3.2 °F - -0.4 °F 85% 30.01 in 4.0 mi Calm Calm - N/A Snow Light Snow
2:13 AM 3.2 °F - -0.4 °F 85% 30.01 in 4.0 mi Calm Calm - N/A Snow Light Snow
2:33 AM 3.2 °F - -0.4 °F 85% 30.02 in 5.0 mi Calm Calm - N/A Snow Light Snow
2:53 AM 3.2 °F - -2.2 °F 78% 30.02 in 5.0 mi Calm Calm - N/A Snow Light Snow
3:13 AM 3.2 °F - -2.2 °F 78% 30.02 in 5.0 mi Calm Calm - N/A   Overcast
3:33 AM 3.2 °F - -2.2 °F 78% 30.03 in 4.0 mi Calm Calm - N/A   Overcast
3:53 AM 3.2 °F - -2.2 °F 78% 30.03 in 7.0 mi Calm Calm - N/A   Overcast
4:13 AM 3.2 °F - -2.2 °F 78% 30.03 in 4.0 mi Calm Calm - N/A Snow Light Snow
4:33 AM 3.2 °F -4.2 °F -2.2 °F 78% 30.03 in 3.0 mi NNE 3.5 mph - N/A   Overcast
4:53 AM 1.4 °F - -2.2 °F 85% 30.04 in 3.0 mi Calm Calm - N/A   Overcast
5:13 AM 1.4 °F - -2.2 °F 85% 30.04 in 3.0 mi Calm Calm - N/A Snow Light Snow
5:33 AM 1.4 °F - -2.2 °F 85% 30.03 in 4.0 mi Calm Calm - N/A   Overcast
5:53 AM 1.4 °F - -2.2 °F 85% 30.04 in 5.0 mi Calm Calm - N/A Snow Light Snow
6:13 AM 1.4 °F - -4.0 °F 78% 30.04 in 4.0 mi Calm Calm - N/A   Overcast
6:33 AM 1.4 °F - -4.0 °F 78% 30.04 in 5.0 mi Calm Calm - N/A Snow Light Snow
6:53 AM 1.4 °F - -4.0 °F 78% 30.05 in 5.0 mi Calm Calm - N/A Snow Light Snow
7:13 AM 1.4 °F - -4.0 °F 78% 30.05 in 4.0 mi Calm Calm - N/A   Overcast
7:33 AM 1.4 °F - -4.0 °F 78% 30.05 in 4.0 mi Calm Calm - N/A   Overcast
7:53 AM 1.4 °F -6.2 °F -5.8 °F 72% 30.05 in 4.0 mi NNE 3.5 mph - N/A Snow Light Snow
8:13 AM 1.4 °F - -5.8 °F 72% 30.05 in 4.0 mi Calm Calm - N/A   Haze
8:33 AM 1.4 °F - -5.8 °F 72% 30.04 in 5.0 mi Calm Calm - N/A   Overcast
8:53 AM 1.4 °F - -4.0 °F 78% 30.04 in 4.0 mi Calm Calm - N/A   Overcast
9:13 AM 1.4 °F - -5.8 °F 72% 30.05 in 5.0 mi Calm Calm - N/A   Haze
9:33 AM 1.4 °F - -5.8 °F 72% 30.05 in 4.0 mi Calm Calm - N/A   Haze
9:54 AM 1.4 °F - -5.8 °F 72% 30.06 in 4.0 mi Calm Calm - N/A Snow Light Snow
10:13 AM 1.4 °F - -5.8 °F 72% 30.06 in 3.0 mi Calm Calm - N/A   Overcast
10:33 AM 1.4 °F - -4.0 °F 78% 30.06 in 2.5 mi Calm Calm - N/A   Overcast
10:53 AM 1.4 °F - -4.0 °F 78% 30.07 in 2.5 mi Calm Calm - N/A   Overcast
11:13 AM 1.4 °F - -5.8 °F 72% 30.07 in 5.0 mi Calm Calm - N/A   Overcast
11:33 AM 1.4 °F - -5.8 °F 72% 30.07 in 4.0 mi Calm Calm - N/A   Overcast
11:53 AM 3.2 °F - -5.8 °F 66% 30.06 in 4.0 mi Calm Calm - N/A Snow Light Snow
12:13 PM 3.2 °F -7.8 °F -5.8 °F 66% 30.06 in 7.0 mi NW 5.8 mph - N/A Snow Light Snow
12:33 PM 1.4 °F -8.3 °F -5.8 °F 72% 30.06 in 3.0 mi NW 4.6 mph - N/A Snow Light Snow
12:53 PM 3.2 °F -4.2 °F -5.8 °F 66% 30.06 in 3.0 mi NNW 3.5 mph - N/A Snow Light Snow
1:13 PM 3.2 °F -4.2 °F -5.8 °F 66% 30.05 in 5.0 mi NW 3.5 mph - N/A Snow Light Snow
1:33 PM 3.2 °F - -5.8 °F 66% 30.06 in 4.0 mi Calm Calm - N/A Snow Light Snow
1:53 PM 3.2 °F - -5.8 °F 66% 30.06 in 4.0 mi Calm Calm - N/A   Overcast
2:13 PM 3.2 °F -4.2 °F -5.8 °F 66% 30.06 in 7.0 mi NW 3.5 mph - N/A   Overcast
2:33 PM 1.4 °F -8.3 °F -5.8 °F 72% 30.06 in 10.0 mi NW 4.6 mph - N/A   Overcast
2:53 PM 1.4 °F - -5.8 °F 72% 30.07 in 4.0 mi Calm Calm - N/A   Overcast
3:13 PM 1.4 °F - -5.8 °F 72% 30.08 in 4.0 mi Calm Calm - N/A Snow Light Snow
3:33 PM 1.4 °F - -5.8 °F 72% 30.09 in 5.0 mi Calm Calm - N/A Snow Light Snow
3:53 PM 1.4 °F - -5.8 °F 72% 30.10 in 5.0 mi Calm Calm - N/A Snow Light Snow
4:13 PM 1.4 °F -6.2 °F -5.8 °F 72% 30.11 in 2.5 mi NW 3.5 mph - N/A Snow Light Snow
4:33 PM -0.4 °F - -5.8 °F 78% 30.12 in 4.0 mi Calm Calm - N/A Snow Light Snow
4:54 PM -0.4 °F - -7.6 °F 72% 30.13 in 4.0 mi Calm Calm - N/A   Overcast
5:13 PM -0.4 °F -8.3 °F -7.6 °F 72% 30.14 in 4.0 mi NNW 3.5 mph - N/A   Overcast
5:34 PM -2.2 °F - -7.6 °F 78% 30.14 in 7.0 mi Calm Calm - N/A Snow Light Snow
5:53 PM -2.2 °F -10.4 °F -7.6 °F 78% 30.15 in 7.0 mi NW 3.5 mph - N/A Snow Light Snow
6:13 PM -2.2 °F - -9.4 °F 71% 30.16 in 5.0 mi Calm Calm - N/A   Overcast
6:33 PM -2.2 °F -10.4 °F -9.4 °F 71% 30.16 in 4.0 mi NW 3.5 mph - N/A Snow Light Snow
6:53 PM -2.2 °F - -9.4 °F 71% 30.17 in 10.0 mi Calm Calm - N/A   Overcast
7:13 PM -4.0 °F -12.4 °F -9.4 °F 78% 30.17 in 4.0 mi NNW 3.5 mph - N/A   Overcast
7:33 PM -4.0 °F - -9.4 °F 78% 30.18 in 4.0 mi Calm Calm - N/A Snow Light Snow
7:53 PM -5.8 °F - -11.2 °F 77% 30.18 in 7.0 mi Calm Calm - N/A Snow Light Snow
8:13 PM -5.8 °F -14.5 °F -11.2 °F 77% 30.18 in 10.0 mi NNW 3.5 mph - N/A   Overcast
8:33 PM -5.8 °F -14.5 °F -11.2 °F 77% 30.18 in 10.0 mi NW 3.5 mph - N/A Snow Light Snow
8:53 PM -5.8 °F -14.5 °F -11.2 °F 77% 30.18 in 7.0 mi North 3.5 mph - N/A Snow Light Snow
9:13 PM -5.8 °F - -13.0 °F 71% 30.19 in 10.0 mi Calm Calm - N/A   Overcast
9:33 PM -5.8 °F - -13.0 °F 71% 30.19 in 7.0 mi Calm Calm - N/A   Overcast
9:53 PM -7.6 °F - -13.0 °F 77% 30.19 in 7.0 mi Calm Calm - N/A   Overcast
10:13 PM -7.6 °F - -13.0 °F 77% 30.20 in 7.0 mi Calm Calm - N/A   Overcast
10:33 PM -7.6 °F - -13.0 °F 77% 30.20 in 5.0 mi Calm Calm - N/A   Haze
10:53 PM -7.6 °F - -13.0 °F 77% 30.20 in 10.0 mi Calm Calm - N/A   Overcast
11:13 PM -7.6 °F - -14.8 °F 71% 30.21 in 7.0 mi Calm Calm - N/A   Overcast
11:33 PM -7.6 °F - -13.0 °F 77% 30.22 in 7.0 mi Calm Calm - N/A   Overcast
11:53 PM -7.6 °F - -13.0 °F 77% 30.22 in 4.0 mi Calm Calm - N/A Snow Light Snow